| time (UTC) | temp C | wind direction | speed KPH | gust KPH | rain 1hr cm | rain 24hr cm | rain mn cm | humidity % | barometer mb |
| 20260504004514 | 9 | 173 | 0.0 | 0.0 | 0.00 | 0.00 | 0.00 | 54 | 1010.2 |
| 20260504003013 | 10 | 173 | 0.0 | 0.0 | 0.00 | 0.00 | 0.00 | 53 | 1009.9 |
| 20260504001513 | 10 | 173 | 0.0 | 0.0 | 0.00 | 0.00 | 0.00 | 49 | 1009.8 |
| 20260504000012 | 11 | 173 | 0.0 | 0.0 | 0.00 | 0.00 | 0.00 | 46 | 1009.6 |
| 20260503234514 | 12 | 173 | 0.0 | 0.0 | 0.00 | 0.00 | 0.00 | 43 | 1009.4 |
| 20260503233011 | 12 | 173 | 0.0 | 8.0 | 0.00 | 0.00 | 0.00 | 42 | 1009.2 |
| 20260503231516 | 13 | 176 | 0.0 | 6.4 | 0.00 | 0.00 | 0.00 | 39 | 1009.1 |
| 20260503230009 | 13 | 200 | 1.6 | 9.7 | 0.00 | 0.00 | 0.00 | 36 | 1009.0 |
| 20260503224508 | 13 | 230 | 0.0 | 6.4 | 0.00 | 0.00 | 0.00 | 36 | 1008.9 |
| 20260503223007 | 13 | 251 | 0.0 | 8.0 | 0.00 | 0.00 | 0.00 | 34 | 1008.7 |
| 20260503221505 | 13 | 269 | 0.0 | 12.9 | 0.00 | 0.00 | 0.00 | 35 | 1008.8 |
| 20260503220006 | 14 | 200 | 0.0 | 16.1 | 0.00 | 0.00 | 0.00 | 33 | 1008.7 |
| 20260503214502 | 14 | 310 | 0.0 | 12.9 | 0.00 | 0.00 | 0.00 | 34 | 1008.8 |
| 20260503213123 | 14 | 134 | 0.0 | 14.5 | 0.00 | 0.00 | 0.00 | 35 | 1008.6 |
| 20260503211618 | 14 | 119 | 0.0 | 17.7 | 0.00 | 0.00 | 0.00 | 36 | 1008.7 |
| 20260503210053 | 15 | 205 | 0.0 | 11.3 | 0.00 | 0.00 | 0.00 | 33 | 1008.7 |
| 20260503204603 | 14 | 324 | 1.6 | 19.3 | 0.00 | 0.00 | 0.00 | 32 | 1008.7 |
| 20260503203049 | 14 | 178 | 1.6 | 20.9 | 0.00 | 0.00 | 0.00 | 32 | 1008.9 |
| 20260503201549 | 13 | 150 | 1.6 | 24.1 | 0.00 | 0.00 | 0.00 | 35 | 1009.0 |
| 20260503200048 | 14 | 360 | 0.0 | 12.9 | 0.00 | 0.00 | 0.00 | 37 | 1009.2 |
| 20260503194544 | 13 | 13 | 1.6 | 20.9 | 0.00 | 0.00 | 0.00 | 36 | 1009.2 |
| 20260503193045 | 13 | 266 | 4.8 | 20.9 | 0.00 | 0.00 | 0.00 | 34 | 1009.4 |
| 20260503191557 | 13 | 312 | 1.6 | 16.1 | 0.00 | 0.00 | 0.00 | 35 | 1009.3 |
| 20260503190045 | 13 | 360 | 8.0 | 24.1 | 0.00 | 0.00 | 0.00 | 35 | 1009.3 |
| 20260503184546 | 13 | 219 | 6.4 | 22.5 | 0.00 | 0.00 | 0.00 | 35 | 1009.4 |
| 20260503183044 | 13 | 148 | 1.6 | 25.7 | 0.00 | 0.00 | 0.00 | 37 | 1009.7 |
| 20260503181537 | 12 | 345 | 8.0 | 29.0 | 0.00 | 0.00 | 0.00 | 38 | 1009.7 |
| 20260503180036 | 12 | 206 | 3.2 | 20.9 | 0.00 | 0.00 | 0.00 | 42 | 1009.8 |
| 20260503174541 | 12 | 240 | 1.6 | 16.1 | 0.00 | 0.00 | 0.00 | 39 | 1010.0 |
| 20260503173031 | 12 | 23 | 4.8 | 20.9 | 0.00 | 0.00 | 0.00 | 43 | 1010.1 |
| 20260503171533 | 11 | 200 | 3.2 | 30.6 | 0.00 | 0.00 | 0.00 | 43 | 1010.2 |
| 20260503081527 | 5 | 5 | 3.2 | 14.5 | 0.00 | 0.03 | 0.00 | 62 | 1009.2 |
| 20260503071516 | 6 | 143 | 0.0 | 1.6 | 0.00 | 0.03 | 0.00 | 66 | 1008.8 |
| 20260503054530 | 7 | 56 | 1.6 | 6.4 | 0.00 | 0.03 | 0.00 | 59 | 1009.0 |
| 20260503053017 | 7 | 19 | 0.0 | 4.8 | 0.00 | 0.03 | 0.00 | 58 | 1009.1 |
| 20260503051513 | 7 | 266 | 0.0 | 9.7 | 0.00 | 0.03 | 0.00 | 57 | 1009.4 |
| 20260503050011 | 7 | 126 | 0.0 | 6.4 | 0.00 | 0.03 | 0.00 | 57 | 1009.4 |
| 20260503044508 | 7 | 347 | 3.2 | 14.5 | 0.00 | 0.03 | 0.00 | 55 | 1009.5 |
| 20260503043006 | 7 | 35 | 0.0 | 4.8 | 0.00 | 0.03 | 0.00 | 55 | 1009.6 |
| 20260503041505 | 7 | 31 | 0.0 | 6.4 | 0.00 | 0.03 | 0.00 | 54 | 1009.7 |
| 20260503040007 | 8 | 185 | 0.0 | 6.4 | 0.00 | 0.03 | 0.00 | 55 | 1009.8 |
| 20260503034600 | 8 | 69 | 1.6 | 8.0 | 0.00 | 0.03 | 0.00 | 54 | 1009.8 |
| 20260503033101 | 8 | 331 | 0.0 | 12.9 | 0.00 | 0.03 | 0.03 | 53 | 1009.8 |
| 20260503031558 | 8 | 5 | 0.0 | 0.0 | 0.00 | 0.03 | 0.03 | 56 | 1009.9 |
| 20260503030056 | 8 | 46 | 0.0 | 0.0 | 0.00 | 0.03 | 0.03 | 59 | 1009.9 |
| 20260503024556 | 8 | 46 | 0.0 | 1.6 | 0.00 | 0.03 | 0.03 | 56 | 1010.0 |
| 20260503023054 | 8 | 36 | 0.0 | 0.0 | 0.00 | 0.03 | 0.03 | 55 | 1009.9 |
| 20260503021554 | 8 | 295 | 0.0 | 0.0 | 0.00 | 0.03 | 0.03 | 53 | 1009.8 |
| 20260503020053 | 9 | 294 | 0.0 | 0.0 | 0.00 | 0.03 | 0.03 | 52 | 1009.9 |
| 20260503014605 | 9 | 286 | 0.0 | 1.6 | 0.00 | 0.03 | 0.03 | 54 | 1009.9 |
| 20260503013052 | 9 | 286 | 0.0 | 1.6 | 0.00 | 0.03 | 0.03 | 49 | 1009.9 |
| 20260503011611 | 9 | 171 | 0.0 | 3.2 | 0.00 | 0.03 | 0.03 | 48 | 1009.8 |
| 20260503010052 | 10 | 42 | 0.0 | 3.2 | 0.00 | 0.03 | 0.03 | 49 | 1009.7 |